Tracking 20712 objects as of 29-May-2020
HD Live streaming from Space Station
objects crossing your sky now

IRIDIUM 33 DEB

Track IRIDIUM 33 DEB now!
10-day predictions


NORAD ID: 35052
Int'l Code: 1997-051NY
Perigee: 772.7 km
Apogee: 787.5 km
Inclination: 86.3 °
Period: 100.3 minutes
Semi major axis: 7151 km
RCS: 0.0011 m2 (small)
Launch date: September 14, 1997
Source: United States (US)
Launch site: TYURATAM MISSILE AND SPACE COMPLEX (TTMTR)

Note: This is SATELLITE DEBRIS
aabbcc
Your satellite tracking list
Your tracking list is empty




NASA's NSSDC Master Catalog

Two Line Element Set (TLE):
1 35052U 97051NY  20149.01063056 +.00000119 +00000-0 +34324-4 0  9995
2 35052 086.3321 165.3213 0010352 218.1136 141.9329 14.35644002582074
Source of the keplerian elements: AFSPC